Location: Holkham
(52.9500°N, 0.8167°E)
Time: 11:56:45
(UTC+00:00)

Spot 4 - Pass Details

Date: 19 May 2025
Orbit: 699 x 715 km, 98.3° (Epoch: 11 June)

Event Time Altitude Azimuth Distance (km) Brightness Sun altitude
Exits shadow 22:56:47 28° 160° (SSE) 1,318 4.6 -16.0°
Maximum altitude 22:59:21 86° 74° (ENE) 713 3.8 -16.1°
Drops below altitude 10° 23:04:09 10° 346° (NNW) 2,188 7.7 -16.3°
Sets 23:06:26 0° 346° (NNW) 3,113 9.0 -16.4°
